Flag for Brazil Weather past 2 weeks in Belo Horizonte, Minas Gerais, Brazil

Now
73 °F

Clear.


Feels Like: 76 °F
Forecast: 69 / 83 °F
Wind: 7 mph from Southeast

Location: Belo Horizonte Airport

Current Time: Mar 2, 2015 at 9:53:15 PM

Latest Report: Mar 2, 2015 at 9:00 PM


Visibility: 10 mi

Pressure: 30.07 "Hg

Humidity: 69%

Dew point: 63 °F

Location of Belo HorizonteLocation

Historic Weather in Belo Horizonte — Graph

°F

Belo Horizonte temperature yesterday

Maximum temperature yesterday: 79 °F (at 5:00 PM)
Minimum temperature yesterday: 68 °F (at 4:00 AM)
Average temperature yesterday: 72 °F

Past Weeks' High & Low Weather Summary

 TemperatureHumidityPressure
High91 °F (Feb 23, 2:00 AM)94% (Feb 18, 8:00 PM)30.21 "Hg (Feb 18, 8:00 PM)
Low64 °F (Feb 22, 6:00 AM)35% (Feb 22, 4:00 PM)29.92 "Hg (Feb 26, 4:00 PM)
Average74 °F68%30.07 "Hg
* Reported Feb 15 9:00 PM — Mar 2 8:00 PM, Belo Horizonte, Weather by CustomWeather, © 2015

Note: Actual official high and low records may vary slightly from our data, if they occured in-between our weather recording intervals... More about our weather records

Advertising

Belo Horizonte weather history for previous 24 hours

 ConditionsComfort  
Time TempWeatherWind HumidityBarometerVisibility
8:00 PM
Mon, Mar 2
75 °FClear.7 mph61%30.07 "Hg10 mi
7:00 PM75 °FPassing clouds.8 mph65%30.04 "HgN/A
6:00 PM79 °FPassing clouds.9 mph54%30.04 "HgN/A
5:00 PM81 °FScattered clouds.12 mph51%30.04 "HgN/A
4:00 PM79 °FScattered clouds.6 mph54%30.04 "HgN/A
3:00 PM82 °FScattered clouds.6 mph51%30.07 "HgN/A
2:00 PM79 °FBroken clouds.8 mph54%30.09 "HgN/A
1:00 PM79 °FPartly sunny.9 mph58%30.12 "HgN/A
12:00 PM77 °FBroken clouds.9 mph61%30.15 "HgN/A
11:00 AM75 °FBroken clouds.10 mph61%30.18 "HgN/A
10:00 AM73 °FBroken clouds.13 mph65%30.18 "HgN/A
9:00 AM72 °FBroken clouds.12 mph73%30.18 "HgN/A
8:00 AM68 °FBroken clouds.13 mph83%30.18 "HgN/A
7:00 AM68 °FBroken clouds.10 mph83%30.15 "HgN/A
6:00 AM68 °FPartly sunny.10 mph83%30.12 "HgN/A
5:00 AM68 °FPartly cloudy.7 mph83%30.12 "HgN/A
4:00 AM68 °FPassing clouds.9 mph83%30.09 "HgN/A
3:00 AM68 °FPassing clouds.9 mph83%30.09 "HgN/A
2:00 AM68 °FPassing clouds.8 mph83%30.12 "HgN/A
1:00 AM70 °FPassing clouds.9 mph78%30.12 "HgN/A
12:00 AM70 °FClear.10 mph78%30.12 "Hg10 mi
11:00 PM
Sun, Mar 1
72 °FClear.12 mph69%30.12 "Hg10 mi
10:00 PM72 °FClear.12 mph69%30.12 "Hg10 mi
9:00 PM73 °FClear.10 mph69%30.12 "Hg10 mi
Weather by CustomWeather, © 2015

See weather overviewHow to use our weather pages